Location: Unspecified
(0.0000°N, 0.0000°E)
Time: 13:12:41
(UTC+00:00)

Envisat - Pass Details

Date: 15 June 2021
Orbit: 764 x 766 km, 98.1° (Epoch: 18 June)

Event Time Altitude Azimuth Distance (km) Brightness Sun altitude
Rises 04:05:06 0° 41° (NE) 3,215 7.3 -26.3°
Reaches altitude 10° 04:08:04 10° 59° (ENE) 2,293 6.5 -25.6°
Maximum altitude 04:11:30 18° 103° (ESE) 1,783 5.4 -24.9°
Drops below altitude 10° 04:14:56 10° 145° (SE) 2,300 5.6 -24.1°
Sets 04:17:53 0° 163° (SSE) 3,229 6.2 -23.4°
